Temp
16 17 17 17 17 17 17 17 18 19 19 20 21 21 22 23 24 23 31 28 29 28 26 30 31 32 33 36 36 35 29 33 38 38 37 38 37 37 37 35 36 36 35 33 31
16 15 16 16 17 18 18 17 18 19 19 20 20 21 22 22 22 30 28 28 28 27 27 32 34 34 35 37 37 35 31 35 39 39 38 39 37 37 36 35 34 35 34 32 31
16 16 16 16 16 18 18 18 18 19 20 20 20 21 22 22 28 33 27 28 28 27 30 33 35 35 36 38 37 35 30 39 39 40 39 38 37 38 37 36 35 34 33 33 32
16 16 16 17 18 18 18 19 19 20 20 20 21 20 22 21 33 30 27 27 27 26 31 33 35 35 36 36 38 37 39 39 40 39 40 39 39 38 38 37 36 35 34 33 33
16 15 16 17 18 19 19 19 20 21 21 21 21 20 19 30 33 27 27 26 26 28 32 35 35 36 36 37 38 34 38 38 39 39 40 39 38 38 37 37 36 35 34 34 34
15 16 16 17 18 19 20 20 21 21 22 22 21 20 22 31 30 27 27 26 31 32 34 35 36 37 37 38 37 36 37 37 37 38 38 38 38 38 37 37 35 34 34 34 34
15 15 16 17 18 19 20 21 21 21 22 22 21 17 29 31 30 29 29 30 32 33 35 34 35 36 38 37 38 36 36 36 38 38 38 38 38 36 37 37 35 35 34 35 34
15 15 15 17 18 19 20 21 21 21 22 22 21 20 32 29 30 30 31 32 32 33 33 34 34 36 37 38 37 34 34 34 36 39 38 36 30 38 38 37 35 35 35 34 34
15 15 16 18 18 20 21 21 21 21 21 22 21 26 31 27 30 30 31 32 32 33 33 33 34 35 37 36 37 34 32 35 36 39 39 36 30 37 38 37 36 35 35 34 34
15 16 17 18 18 20 21 20 20 20 20 21 25 29 31 31 32 32 32 33 33 34 34 34 35 35 36 37 36 36 35 36 35 37 39 34 26 34 38 37 36 36 35 35 34
15 16 18 18 19 20 19 21 25 26 27 31 32 31 33 32 31 32 32 33 34 34 34 34 34 35 37 37 38 37 37 32 35 37 37 37 34 38 38 38 36 37 36 35 35
15 15 17 19 20 21 20 29 28 27 30 31 31 31 31 32 32 33 32 33 33 33 35 34 34 37 38 38 38 37 37 30 33 37 38 37 36 38 39 39 38 38 37 36 36
15 16 17 20 21 21 26 27 26 27 29 31 32 32 32 32 33 33 33 34 33 33 34 34 36 37 36 35 35 37 37 37 37 37 37 38 37 36 39 39 39 39 38 38 37
16 16 17 20 20 26 28 26 26 26 30 30 31 32 32 33 33 34 34 34 34 34 34 35 37 35 34 35 36 36 38 38 37 36 36 38 34 37 38 38 38 38 38 38 37
16 16 18 18 18 27 27 26 27 28 30 32 32 32 34 33 33 33 34 34 33 34 34 34 34 34 34 35 36 36 38 37 37 37 37 36 37 35 37 38 38 39 38 39 38
17 17 19 17 19 25 25 26 27 29 30 31 32 31 32 33 33 33 33 34 35 34 33 35 35 35 35 36 36 37 36 36 36 37 36 36 37 37 38 38 39 40 39 39 38
18 17 18 18 27 25 26 29 29 30 32 31 31 32 33 32 32 32 32 32 32 31 32 33 33 34 35 34 35 35 35 34 34 35 35 39 38 38 38 40 40 39 40 39 39
19 18 21 21 24 24 26 29 28 32 32 33 33 33 32 33 32 33 32 33 33 34 35 33 32 34 34 35 34 34 36 35 33 35 36 38 37 39 40 41 40 41 40 40 39
20 22 24 25 24 24 28 29 31 31 32 31 32 31 32 32 32 32 32 33 33 33 32 33 33 35 35 35 36 35 34 37 37 38 37 39 39 40 40 40 40 40 41 40 40
16 26 28 25 25 26 28 28 31 31 31 32 31 32 30 31 31 32 32 32 32 32 33 33 32 34 34 34 35 35 36 35 35 33 34 37 38 38 38 38 39 40 40 40 40
19 28 27 25 25 28 29 31 31 31 31 31 32 31 32 31 31 31 31 30 31 32 32 34 33 33 33 32 33 34 33 35 37 36 35 35 37 40 39 39 39 39 39 40 40
24 28 26 26 27 30 30 31 20 30 31 31 31 32 31 31 31 31 30 29 28 31 31 33 33 32 33 34 34 35 35 35 34 33 36 37 36 39 38 37 36 37 36 36 37
25 28 27 26 27 30 30 30 30 30 30 30 30 30 31 30 29 30 29 27 28 30 30 31 32 32 32 33 33 32 34 34 35 36 34 35 36 37 35 35 33 34 34 33 34
24 27 28 28 28 28 30 29 28 29 30 30 30 30 30 29 29 28 28 27 27 29 22 26 31 31 32 31 33 32 33 33 34 33 34 35 36 33 31 30 30 30 31 31 31
24 26 27 27 28 28 29 29 29 27 29 29 29 30 29 28 29 28 29 27 28 22 26 29 29 31 32 31 32 32 32 32 32 33 33 35 35 31 29 26 25 25 27 29 29
23 25 26 26 27 27 25 28 28 29 28 28 28 29 29 28 29 28 28 28 28 28 29 30 28 29 29 31 31 31 31 31 32 32 32 33 33 32 29 29 27 25 24 26 26
22 21 22 23 26 26 27 27 28 29 28 29 29 27 28 28 28 28 29 29 28 27 28 28 29 28 27 30 31 29 31 31 31 32 32 31 32 31 31 28 25 24 23 23 23
Height
803 799 796 792 790 787 783 779 776 774 771 769 767 765 763 761 759 758 752 752 752 753 754 752 751 748 745 734 733 731 766 764 735 737 743 730 743 739 740 752 750 751 756 767 780
803 799 795 792 788 784 781 778 775 773 770 767 766 764 762 759 757 751 750 751 752 753 754 749 746 743 739 731 728 737 765 745 718 721 733 729 737 744 748 755 758 756 763 775 781
803 799 795 792 788 784 779 776 773 771 769 766 764 763 762 759 753 740 748 749 751 753 751 747 741 739 734 726 727 737 759 718 720 714 720 731 739 732 746 755 755 764 769 774 780
803 799 794 789 786 782 778 775 772 769 767 766 764 762 761 761 752 745 748 749 751 754 752 747 743 743 737 739 721 734 715 718 717 720 721 730 728 737 734 742 748 758 767 773 777
803 798 793 789 784 780 777 774 770 768 765 764 763 763 761 752 742 748 748 750 753 754 749 743 741 737 739 729 726 745 726 724 721 721 718 722 733 738 745 743 751 760 767 772 773
802 797 793 788 783 778 774 771 768 766 764 762 762 761 760 751 748 749 751 753 750 749 745 742 737 729 731 729 734 736 734 733 729 726 726 730 733 736 743 745 756 762 767 769 772
800 796 792 787 781 776 772 769 766 764 764 763 762 762 752 745 748 749 751 751 748 746 744 744 740 738 727 734 727 737 748 744 731 727 732 729 742 750 739 745 757 762 765 768 773
798 793 789 785 780 774 770 767 766 764 763 762 762 763 742 749 749 750 748 749 750 749 747 746 747 740 732 724 734 754 754 771 745 727 725 736 781 736 736 745 757 760 764 769 772
797 791 786 782 777 772 769 767 765 764 763 762 761 757 744 751 749 748 748 747 748 748 749 749 746 742 736 745 747 759 783 763 751 723 724 744 779 736 731 741 754 758 762 767 771
794 789 784 779 774 769 767 766 765 764 763 763 760 756 744 744 742 745 746 745 746 745 747 747 745 747 742 744 758 751 762 755 764 739 728 754 789 748 732 738 748 753 759 765 769
792 787 782 777 772 768 766 765 764 761 756 743 738 741 736 740 746 745 747 745 743 744 751 745 756 756 740 731 724 736 740 772 757 736 742 741 755 734 731 732 745 748 756 761 765
790 785 780 775 771 768 765 753 757 759 749 743 744 744 741 739 745 741 746 749 748 754 741 752 756 731 725 725 731 739 741 783 766 741 740 746 751 732 728 730 735 740 748 753 759
789 783 778 773 769 768 761 758 760 758 751 744 740 738 740 740 738 740 742 741 748 750 744 749 736 723 734 744 748 742 739 739 747 745 743 741 751 751 730 727 726 729 736 743 752
787 782 776 771 771 763 758 761 759 759 751 749 744 736 738 733 739 732 735 738 743 749 742 744 724 738 749 751 746 751 728 732 741 754 769 737 789 749 735 735 734 732 734 739 745
785 780 774 771 768 761 760 760 759 757 765 736 736 730 729 736 731 740 734 736 746 744 742 747 742 750 756 748 736 746 721 739 745 750 746 756 761 759 736 738 734 729 730 731 739
782 776 771 770 769 762 762 760 758 766 762 744 732 740 741 735 735 735 740 735 728 740 744 736 729 738 738 733 736 734 745 750 747 749 769 755 754 748 741 731 724 718 721 725 730
778 772 768 769 759 762 762 756 761 757 727 742 741 733 736 739 740 741 744 748 750 765 762 746 750 738 734 746 742 746 757 780 786 777 775 731 745 741 725 710 710 715 713 718 723
774 769 767 767 764 763 760 756 766 730 736 722 727 732 739 734 740 740 743 745 738 735 734 757 767 744 738 740 749 750 747 762 791 777 761 731 752 729 703 704 705 703 703 710 719
771 766 765 762 764 764 757 756 740 733 726 738 735 742 742 740 741 742 742 739 737 737 751 749 747 728 732 732 733 745 760 731 745 732 749 727 721 709 706 709 709 709 706 707 711
774 761 754 761 762 761 756 750 733 728 730 727 745 736 750 749 750 744 745 740 747 743 736 738 756 738 738 735 733 737 727 758 749 780 780 746 734 734 720 720 715 711 712 707 707
772 753 753 759 760 755 752 732 731 731 731 733 732 742 737 744 745 746 746 752 750 745 741 736 744 748 744 753 746 749 753 745 733 745 763 768 742 696 707 707 710 712 710 707 708
768 756 753 757 758 740 738 729 748 732 732 734 729 728 738 742 745 745 753 756 758 749 754 739 739 751 748 728 728 727 736 739 754 765 741 739 746 699 705 711 719 719 725 726 719
764 748 750 753 755 737 730 735 735 734 733 735 739 737 737 744 759 750 755 761 757 753 755 746 751 757 756 747 741 749 740 737 732 732 748 756 744 710 721 725 735 735 736 737 729
771 753 743 747 741 741 732 740 745 738 736 735 737 738 745 752 749 762 763 764 761 755 772 764 749 749 753 753 739 754 745 744 742 756 752 744 733 733 745 750 753 752 745 744 743
767 753 747 743 741 739 734 732 738 749 739 738 745 739 744 754 755 759 755 763 762 772 764 758 767 750 742 746 748 743 747 748 757 749 753 737 736 741 753 763 770 767 760 754 753
770 759 750 749 740 742 741 736 735 735 741 744 745 740 742 750 750 754 755 759 763 759 759 751 768 759 763 745 750 757 751 753 753 750 750 747 746 739 751 754 764 771 772 766 763
770 771 769 754 744 741 736 735 734 727 740 732 738 747 750 748 750 750 749 751 754 764 763 762 761 766 776 753 752 768 755 753 751 747 750 760 750 745 750 757 770 773 778 776 774
Wind_Speed
21 21 20 20 20 19 20 19 15 13 13 13 14 14 12 13 11 6 9 3 2 8 11 9 10 10 9 9 6 7 8 3 6 13 14 15 14 11 15 13 5 4 17 22 23
23 23 22 21 20 19 19 20 19 15 12 11 12 12 12 14 9 12 5 8 8 14 9 12 11 10 11 7 6 8 5 6 13 13 15 16 14 16 13 12 9 13 22 23 21
23 25 24 23 22 21 21 20 19 17 12 10 8 9 10 11 11 9 2 9 10 17 14 12 8 10 14 7 10 16 7 10 13 10 15 11 14 14 12 13 13 18 18 19 18
23 25 24 24 22 21 21 19 19 17 13 10 7 7 9 6 1 6 2 9 15 13 13 11 12 13 13 8 6 5 5 7 13 5 13 12 12 13 5 18 17 19 19 18 16
23 24 25 24 24 23 22 18 17 18 16 11 6 5 5 8 2 3 8 16 16 10 13 12 13 14 10 2 8 10 11 4 3 8 11 10 8 10 13 15 17 19 18 17 15
23 25 24 25 26 24 22 17 16 14 13 7 3 5 8 10 3 7 12 15 13 14 11 11 10 7 11 6 3 12 5 2 4 7 3 11 14 10 17 16 18 18 17 15 15
25 27 25 25 25 25 21 15 11 9 7 2 3 4 11 4 5 10 14 15 11 10 8 10 7 10 4 6 4 3 2 2 7 15 15 9 13 20 17 18 18 17 15 14 14
26 27 26 26 26 25 16 10 6 5 4 2 2 5 2 5 7 12 11 12 9 8 8 4 9 15 13 6 7 5 3 3 20 10 8 2 8 19 17 17 17 17 15 13 14
26 27 26 27 25 23 10 6 3 3 2 1 4 8 6 7 11 14 13 12 11 7 7 6 11 14 11 11 14 11 7 10 15 13 10 9 1 15 18 17 15 16 16 15 15
26 26 25 26 25 16 6 4 6 3 4 6 9 7 10 12 12 15 11 6 10 9 8 10 9 12 13 14 14 16 20 15 7 6 11 21 5 22 14 17 16 16 16 15 16
26 26 25 26 24 8 4 4 5 6 13 8 6 4 11 9 9 13 13 10 9 12 11 15 11 15 18 19 6 12 5 1 6 10 8 5 25 14 13 15 16 16 15 16 16
26 27 29 25 18 4 7 6 6 5 6 5 4 6 2 12 12 13 16 11 10 13 14 11 15 15 18 16 14 10 14 25 15 8 8 10 12 10 14 11 16 16 16 16 16
26 26 30 24 9 4 8 5 4 5 7 8 7 9 11 12 12 15 15 16 12 15 16 13 13 14 5 7 9 16 14 11 8 13 11 9 10 14 12 10 10 13 15 16 17
26 28 29 22 4 2 6 1 5 2 6 11 13 6 7 8 5 13 19 9 11 15 12 15 4 4 10 15 15 17 15 5 12 10 14 15 6 8 13 15 13 13 15 16 17
27 30 28 14 10 10 5 3 4 5 6 15 12 13 16 13 14 11 7 8 12 12 10 14 10 12 13 15 13 15 6 11 10 14 15 11 10 9 13 13 16 16 16 17 18
28 31 21 2 6 7 4 5 5 7 2 9 10 12 14 12 9 11 11 10 7 10 12 10 5 11 14 14 9 14 3 10 14 14 14 17 13 12 12 15 17 18 18 18 19
30 26 9 5 4 2 6 8 7 8 8 11 14 16 18 12 11 16 15 14 10 12 12 13 11 14 9 12 11 15 11 9 12 13 14 17 18 14 7 6 13 10 20 19 18
32 11 6 9 5 4 10 9 8 3 6 5 11 14 15 13 13 15 13 12 8 9 10 12 14 16 13 18 12 15 18 12 16 12 15 17 17 14 12 7 4 5 11 19 19
22 4 8 3 6 7 9 10 6 3 4 9 11 13 10 10 5 11 13 13 6 7 9 6 3 14 9 12 15 16 17 20 21 19 9 12 19 10 7 9 9 6 9 12 20
15 10 6 5 5 9 9 15 2 2 3 8 15 14 13 16 11 12 9 4 6 5 9 5 5 10 11 7 10 16 5 14 11 16 15 13 13 12 17 12 9 7 6 11 12
8 5 9 7 6 7 11 9 4 5 8 9 14 11 12 12 15 14 11 7 2 4 8 11 10 11 9 11 15 12 12 12 16 14 13 11 9 12 7 4 12 16 5 2 8
10 6 9 7 8 9 12 4 3 11 9 6 6 11 10 9 11 10 7 4 1 6 11 11 7 9 15 7 6 7 11 18 9 14 11 14 3 12 13 13 8 12 9 9 12
5 8 7 9 8 10 8 5 9 7 10 10 7 5 4 8 4 4 7 2 1 6 7 3 9 8 9 11 7 12 11 9 12 12 12 12 5 14 11 13 11 9 7 8 9
5 5 6 7 12 13 9 12 11 5 4 4 4 7 9 8 3 6 7 4 1 0 6 4 15 14 6 6 6 17 7 9 11 10 11 13 12 18 13 10 12 11 10 8 10
4 5 5 5 11 12 15 12 15 10 8 9 8 11 11 8 8 9 9 5 8 6 5 6 13 13 17 5 8 3 9 9 11 12 13 7 12 17 9 7 5 8 10 8 9
5 6 4 11 10 11 10 15 16 16 13 13 10 8 6 8 7 5 9 10 8 8 11 11 12 10 12 10 11 12 11 11 11 11 10 13 14 14 7 6 6 7 9 9 7
7 9 6 10 14 13 14 16 16 12 6 6 10 9 9 6 3 5 4 6 5 7 8 9 10 8 15 17 15 17 14 14 14 14 14 14 6 10 7 5 6 4 7 8 8
Wind_Direction
2 358 355 351 348 343 336 331 332 335 332 329 325 324 326 325 318 268 249 115 205 189 164 195 207 214 222 247 234 270 0 310 116 119 123 119 112 87 96 127 123 68 136 126 143
358 356 353 350 347 342 337 331 327 326 324 325 323 325 326 325 300 250 210 251 220 183 200 194 204 201 230 245 205 247 130 237 91 116 126 121 119 127 137 118 117 109 109 132 146
356 355 353 350 344 341 336 330 326 323 321 319 320 323 323 326 266 97 257 210 186 190 227 223 245 229 252 225 231 96 249 103 111 100 136 131 125 148 135 138 128 132 137 147 153
356 355 351 347 344 341 337 331 324 318 314 307 309 316 314 273 300 56 248 176 170 186 239 233 236 227 245 208 220 204 33 97 115 193 126 156 140 123 105 102 124 137 146 150 160
354 352 350 347 343 341 337 329 322 317 311 284 287 304 296 219 51 10 153 153 162 200 218 224 221 238 256 186 208 331 98 29 169 181 152 112 146 112 102 108 127 140 151 156 159
351 349 348 347 342 338 334 327 323 325 323 287 257 279 246 241 101 134 152 167 190 199 207 230 244 275 304 273 222 144 72 49 254 138 167 187 134 184 121 128 135 148 157 163 150
348 347 347 346 341 337 334 327 328 339 349 323 233 259 269 53 159 162 167 188 177 207 201 235 295 260 259 209 77 72 201 89 246 173 157 234 155 141 138 141 147 157 163 160 157
346 346 349 346 341 336 329 327 331 348 30 8 252 250 23 133 166 167 173 183 197 218 257 266 234 263 265 72 197 139 333 170 272 200 171 159 304 133 147 152 157 160 161 165 164
345 344 346 345 341 335 327 320 318 329 331 1 237 225 141 159 187 177 179 177 182 200 214 257 228 237 220 235 198 166 161 235 214 187 171 146 202 175 164 153 162 165 164 171 168
344 344 343 342 339 335 321 270 269 284 271 249 264 255 162 192 164 170 189 194 187 181 186 204 216 222 237 222 214 186 163 211 206 191 237 117 262 255 179 159 160 170 170 177 176
341 341 341 340 336 323 315 240 207 198 225 309 135 332 133 123 151 183 174 190 203 202 201 204 214 213 213 225 248 309 163 36 187 223 262 269 187 148 170 170 164 170 177 180 182
339 340 338 338 333 290 286 275 37 349 278 192 241 267 220 177 181 181 183 202 203 211 218 192 224 224 236 227 251 219 231 186 198 204 256 207 227 195 167 197 172 180 174 183 184
339 338 335 337 325 257 270 43 335 313 247 142 198 199 181 207 188 174 198 215 201 225 203 213 206 236 177 231 236 240 240 181 209 176 235 260 200 153 187 195 192 173 177 186 183
338 338 333 336 281 324 228 151 312 291 258 144 180 172 183 241 170 154 206 206 213 225 196 235 166 141 210 230 218 237 237 282 184 224 215 205 235 223 195 186 200 185 186 187 181
336 336 330 323 306 255 61 302 306 240 246 146 147 138 168 214 126 191 195 212 234 224 204 214 163 205 219 221 219 243 230 210 249 243 265 213 235 191 242 196 192 200 200 192 180
334 333 328 310 229 266 255 284 236 235 183 154 147 187 184 209 197 143 182 247 304 212 222 264 204 214 223 218 220 247 163 249 244 250 231 241 255 188 209 222 202 195 195 202 181
334 327 307 272 9 222 259 235 222 258 126 150 179 178 196 186 158 172 180 192 188 198 200 209 195 223 252 199 197 235 207 214 219 226 240 233 225 233 198 187 223 190 189 193 191
335 318 294 231 270 242 250 232 253 10 183 118 181 191 205 171 175 181 188 180 258 257 193 192 192 199 193 233 193 217 226 229 211 229 231 224 251 236 187 204 195 252 191 186 198
339 244 234 178 220 244 253 232 237 174 108 189 196 197 184 185 213 194 202 208 154 255 314 194 163 165 199 222 245 196 227 252 268 277 280 248 204 238 238 223 225 212 217 200 190
325 269 178 181 196 246 249 258 41 336 241 220 198 199 186 200 212 205 189 66 154 257 289 355 152 188 182 241 235 262 288 225 241 257 259 238 225 209 199 193 213 221 221 196 200
282 243 126 173 226 238 243 243 163 169 227 222 221 185 225 194 220 203 184 120 244 201 265 283 249 151 151 209 210 202 233 242 250 219 249 238 245 236 134 51 197 205 305 317 216
287 251 135 179 235 230 243 222 352 168 197 200 300 221 206 182 223 199 173 55 265 288 222 232 280 183 204 121 326 313 225 225 236 231 249 262 36 35 82 95 7 38 34 354 318
281 296 152 212 246 233 213 219 217 185 197 192 178 249 299 203 162 247 92 82 240 231 354 294 248 228 156 175 210 249 232 268 261 267 251 236 180 104 75 88 57 47 27 18 340
282 269 190 212 264 286 255 224 199 280 152 266 143 176 181 182 212 189 155 163 139 340 347 306 266 280 275 17 337 194 210 232 257 220 239 244 233 126 95 44 54 7 15 31 22
243 267 9 251 228 240 262 229 203 178 216 202 199 207 207 196 193 194 166 151 197 145 235 252 262 272 273 129 284 309 200 203 239 263 274 243 306 77 86 80 31 28 343 22 19
293 310 329 269 287 275 234 245 222 188 189 196 242 198 175 237 216 236 204 194 203 188 234 237 253 278 263 258 240 254 227 245 257 271 274 276 285 90 87 73 36 20 5 353 33
283 276 266 281 243 240 240 222 227 182 214 265 216 175 211 117 60 7 2 338 21 252 232 249 254 220 253 246 236 243 246 253 255 245 248 248 17 14 346 54 6 16 355 339 353